DELTA 1 DEB, 7043

Orbit data source: Space-Track

DELTA 1 DEB, 7043 is space debris in SSO originally from a launch on Tue, 06 Nov 1973 UTC launched from the Air Force Western Test Range (AFWTR). Debris objects in space refer to the collection of defunct objects orbiting the Earth. Examples of debris include non-operational satellites, rocket bodies, and fragments generated from explosions, collisions, or faulty payload assembly.

Loading next visibility...
Identifier
7043, 1973-086AK
Orbit
SSO
Country
Flag of USUS
Related business
Manufacturer
Unknown
Mission
Spacecraft
Bus & Motor
Unknown
Mass
Unknown
Launch date (UTC)
1973-11-06 (53 years ago)
Launch vehicle
Unknown
Launch site
Air Force Western Test Range (AFWTR)
Object type
Payload
Rocket body
Debris
Shape & HBR
Unknown shape, 0.2 m
Radar Cross Section
Medium (>0.1 m² and <1 m²)

Expand to show TLE details & history
Last TLE update: 1 day ago

TLE from 1 day ago
0 DELTA 1 DEB
1 07043U 73086AK  26263.77751814 -.00000113  00000-0 -22791-3 0  9998
2 07043 102.1176 335.9363 0216272  46.3151  74.9862 12.85397583476864
Epoch: 2026-09-20T18:39Z
TLE epoch observation values (Epoch: 2026-09-20T18:39:37.567Z)
Latitude
54.51821°
Longitude
-106.19785°
Altitude
1,288.88 km
Speed
7.236 km/s
True Right ascension
11h 33m 30s
True Declination
54° 22' 00"
Sunlit
Object was in daylight at epoch
Visualization orbit readout
Latitude
Unknown
Longitude
Unknown
Altitude
Unknown
Speed
Unknown
Apparent Right ascension
Unknown
Apparent Declination
Unknown
Sunlit
N/A
Visualization observer readout
Local Sidereal Time
12:53:04
Azimuth
Unknown
Elevation
Unknown
Doppler factor
Unknown
Orbital elements
Apogee altitude
1,483.798 km
Perigee altitude
1,150.933 km
Semi-major axis
7,695.503 km
Eccentricity
0.02163
Inclination
102.1176°
RAAN
335.9363°
Arg. of periapsis
46.3151°
True anomaly
77.39606°
Mean anomaly
74.9862°
Eccentric anomaly
76.18952°
Mean motion
3.21505 °/min
Orbital period
111.97 mins
BSTAR
-0.00022791
Loading maneuver chart data...
Computing Atmospheric mass density...
Loading historical data...
Loading historical data...
Loading historical data...
Loading historical data...
Loading historical data...
Loading historical data...
Loading historical data...

Documentation

Showing up to 5 results
|